GW0547 Weather Reports


time (UTC)temp
F
wind
direction
speed
knots
gust
knots
rain 1hr
in
rain 24hr
in
rain mn
in
humidity
%
barometer
mb
20260510072526 46 175 2.6 7.0 0.00 0.23 0.10 93 1008.7
20260510072026 46 180 3.5 6.1 0.00 0.23 0.10 94 1008.7
20260510071546 46 190 2.6 4.3 0.00 0.23 0.10 94 1008.8
20260510071025 46 190 2.6 7.8 0.00 0.23 0.10 93 1008.7
20260510070525 47 181 4.3 7.8 0.00 0.23 0.10 93 1008.5
20260510070044 47 196 3.5 7.8 0.00 0.23 0.10 93 1008.6
20260510065525 47 166 4.3 7.8 0.00 0.23 0.10 94 1008.7
20260510065028 47 190 4.3 7.8 0.00 0.23 0.10 94 1008.8
20260510064542 47 190 3.5 5.2 0.00 0.23 0.10 93 1008.9
20260510064025 47 157 3.5 4.3 0.00 0.23 0.10 93 1008.8
20260510063525 47 155 1.7 4.3 0.00 0.23 0.10 93 1008.8
20260510063040 47 161 1.7 6.1 0.00 0.23 0.10 93 1009.0
20260510062525 48 173 1.7 7.8 0.00 0.23 0.10 93 1008.9
20260510062025 48 182 3.5 7.8 0.00 0.23 0.10 93 1008.9
20260510061545 48 194 3.5 6.1 0.01 0.23 0.10 93 1009.0
20260510061024 48 194 2.6 4.3 0.01 0.23 0.10 93 1008.9
20260510060524 48 194 2.6 3.5 0.01 0.23 0.10 93 1009.1
20260510060044 48 178 1.7 3.5 0.01 0.23 0.10 92 1009.1
20260510055521 48 178 0.9 4.3 0.03 0.23 0.10 92 1009.0
20260510055023 48 178 1.7 7.0 0.04 0.23 0.10 92 1009.2
20260510054543 48 185 2.6 7.8 0.05 0.23 0.10 92 1009.2
20260510054025 48 198 4.3 7.8 0.06 0.23 0.10 93 1009.1
20260510053523 48 192 2.6 7.8 0.07 0.23 0.10 92 1009.2
20260510053053 48 199 4.3 7.8 0.07 0.23 0.10 93 1009.3
20260510052524 48 197 4.3 7.8 0.07 0.23 0.10 93 1009.2
20260510052024 48 201 4.3 7.8 0.07 0.23 0.10 93 1009.2
20260510051543 48 187 3.5 7.0 0.06 0.22 0.09 92 1008.9
20260510051023 49 136 3.5 8.7 0.06 0.22 0.09 92 1008.7
20260510050522 49 146 5.2 8.7 0.06 0.22 0.09 92 1009.1
20260510050041 49 142 5.2 8.7 0.08 0.22 0.09 91 1009.1
20260510045524 49 188 2.6 7.0 0.07 0.20 0.07 91 1009.8
20260510045024 49 214 1.7 7.8 0.06 0.19 0.06 92 1009.9
20260510044536 49 253 2.6 7.8 0.05 0.18 0.05 92 1009.9
20260510044023 49 257 0.0 6.1 0.04 0.17 0.04 92 1010.0
20260510043523 49 252 1.7 4.3 0.03 0.16 0.03 91 1009.9
20260510043040 49 218 1.7 4.3 0.03 0.16 0.03 91 1009.6
20260510042525 49 310 0.0 7.0 0.03 0.16 0.03 91 1009.6
20260510042023 49 250 2.6 7.0 0.03 0.16 0.03 91 1009.5
20260510041540 50 263 1.7 8.7 0.03 0.16 0.03 91 1009.6
20260510041027 50 297 3.5 8.7 0.03 0.16 0.03 92 1009.5
20260510040522 50 263 4.3 8.7 0.02 0.15 0.02 92 1009.6
20260510040047 50 297 0.9 5.2 0.00 0.13 0.00 92 1009.5
20260510035523 50 209 1.7 5.2 0.00 0.13 0.13 92 1009.2
20260510035026 50 204 1.7 6.1 0.00 0.13 0.13 92 1009.1
20260510034538 50 187 2.6 6.1 0.00 0.13 0.13 92 1009.1
20260510034023 50 208 1.7 7.0 0.00 0.13 0.13 92 1008.9
20260510033526 50 190 3.5 7.0 0.00 0.13 0.13 92 1008.7
20260510033044 49 207 3.5 7.8 0.00 0.13 0.13 92 1008.6
20260510032523 49 184 4.3 8.7 0.00 0.13 0.13 92 1008.5
20260510032026 49 178 4.3 8.7 0.00 0.13 0.13 92 1008.4
20260510031542 49 173 4.3 7.8 0.00 0.13 0.13 92 1008.3
20260510031023 49 182 3.5 6.1 0.00 0.13 0.13 92 1008.4
20260510030523 50 173 3.5 7.0 0.00 0.13 0.13 91 1008.4
20260510030044 50 189 4.3 7.0 0.00 0.13 0.13 92 1008.4
20260510025523 50 189 3.5 8.7 0.00 0.13 0.13 91 1008.4
20260510025023 50 185 4.3 8.7 0.00 0.13 0.13 91 1008.3
20260510024542 50 175 4.3 8.7 0.00 0.13 0.13 91 1008.3
20260510024022 50 182 5.2 10.4 0.00 0.13 0.13 92 1008.3
20260510023523 50 171 5.2 10.4 0.00 0.13 0.13 91 1008.2
20260510023042 50 181 5.2 13.0 0.00 0.13 0.13 92 1008.2
20260510022524 50 196 7.0 13.0 0.00 0.13 0.13 92 1008.3
20260510022024 50 192 6.1 11.3 0.00 0.13 0.13 92 1008.0
20260510021537 50 184 7.0 11.3 0.00 0.13 0.13 92 1007.9
20260510021023 50 171 6.1 11.3 0.00 0.13 0.13 92 1007.8
20260510020521 50 190 7.0 12.2 0.00 0.13 0.13 92 1007.8
20260510020044 50 178 7.8 12.2 0.00 0.13 0.13 92 1007.8
20260510015521 50 188 7.0 12.2 0.00 0.13 0.13 91 1007.8
20260510015024 50 157 6.1 13.0 0.00 0.13 0.13 91 1007.7
20260510014545 50 175 6.1 13.0 0.00 0.13 0.13 91 1007.9
20260510014023 50 187 7.0 11.3 0.00 0.13 0.13 91 1007.9
20260510013521 50 173 7.0 11.3 0.00 0.13 0.13 91 1007.9
20260510013047 50 179 7.0 10.4 0.00 0.13 0.13 91 1007.9
20260510012523 50 181 7.0 10.4 0.00 0.13 0.13 91 1007.9
20260510012024 50 196 6.1 8.7 0.00 0.13 0.13 91 1007.8
20260510011538 50 183 5.2 8.7 0.00 0.13 0.13 91 1007.6
20260510011022 50 200 6.1 9.6 0.00 0.13 0.13 90 1007.6
20260510010523 51 186 5.2 9.6 0.00 0.13 0.13 90 1007.6
20260510010038 51 182 5.2 10.4 0.00 0.13 0.13 90 1007.5
20260510005521 51 178 7.0 12.2 0.00 0.13 0.13 90 1007.5
20260510005023 51 175 7.0 12.2 0.00 0.13 0.13 90 1007.6
20260510004536 51 187 6.1 9.6 0.00 0.13 0.13 91 1007.6
20260510004021 51 179 6.1 9.6 0.00 0.13 0.13 91 1007.7
20260510003523 50 192 5.2 7.8 0.00 0.13 0.13 91 1007.6
20260510003046 50 181 3.5 7.0 0.00 0.13 0.13 90 1007.5
20260510002522 50 185 4.3 7.8 0.00 0.13 0.13 90 1007.4
20260510002023 50 190 4.3 7.8 0.00 0.13 0.13 90 1007.3
20260510001540 51 180 5.2 10.4 0.00 0.13 0.13 90 1007.2
20260510001023 51 180 6.1 10.4 0.00 0.13 0.13 90 1007.2
20260510000524 51 178 5.2 9.6 0.00 0.13 0.13 90 1007.2
20260510000039 51 174 5.2 9.6 0.00 0.13 0.13 90 1007.2
20260509235524 51 200 5.2 9.6 0.00 0.13 0.13 90 1007.2
20260509235026 50 190 5.2 8.7 0.00 0.13 0.13 91 1007.2
20260509234545 50 175 4.3 8.7 0.00 0.13 0.13 89 1007.1
20260509234026 50 175 4.3 8.7 0.00 0.13 0.13 89 1006.9
20260509233525 51 177 5.2 8.7 0.00 0.13 0.13 89 1007.0
20260509233043 51 178 4.3 7.8 0.00 0.13 0.13 89 1007.2
20260509232525 51 202 4.3 9.6 0.00 0.13 0.13 89 1007.2
20260509232025 51 173 4.3 9.6 0.00 0.13 0.13 89 1007.1
20260509231555 51 173 5.2 10.4 0.00 0.13 0.13 88 1007.1
20260509231025 51 175 6.1 10.4 0.00 0.13 0.13 89 1007.2
20260509230523 51 196 6.1 10.4 0.00 0.13 0.13 88 1007.1
20260509230042 51 205 6.1 11.3 0.00 0.13 0.13 88 1007.2
20260509225525 52 211 6.1 11.3 0.00 0.13 0.13 88 1007.2
20260509225024 52 189 5.2 10.4 0.00 0.13 0.13 88 1007.3
20260509224539 52 211 4.3 9.6 0.00 0.13 0.13 88 1007.2
20260509224025 52 193 5.2 9.6 0.00 0.13 0.13 88 1007.2
20260509223527 51 180 5.2 9.6 0.00 0.13 0.13 89 1007.1
20260509223046 51 205 5.2 13.9 0.00 0.13 0.13 88 1007.1
20260509222525 51 193 5.2 13.9 0.00 0.13 0.13 88 1007.1
20260509222026 51 204 7.0 9.6 0.00 0.13 0.13 88 1006.9
20260509221544 51 182 5.2 13.0 0.00 0.13 0.13 89 1006.9
20260509221026 51 200 6.1 13.0 0.00 0.13 0.13 89 1006.9
20260509220525 51 174 6.1 8.7 0.00 0.13 0.13 89 1006.9
20260509220051 51 208 3.5 13.0 0.00 0.13 0.13 89 1007.1
20260509215523 51 196 5.2 13.0 0.00 0.13 0.13 89 1007.1
20260509215026 51 180 6.1 13.0 0.00 0.13 0.13 89 1007.1
20260509214544 51 201 7.0 12.2 0.00 0.13 0.13 89 1007.1
20260509214028 51 186 5.2 13.0 0.00 0.13 0.13 89 1007.1
20260509213525 51 198 7.0 13.0 0.00 0.13 0.13 89 1007.1
20260509213047 51 217 7.0 14.8 0.00 0.13 0.13 88 1007.1
20260509212525 51 223 7.0 14.8 0.00 0.13 0.13 88 1007.1
20260509212030 51 188 6.1 11.3 0.00 0.13 0.13 89 1007.2
20260509211546 51 196 7.0 10.4 0.00 0.13 0.13 89 1007.2
20260509211028 51 190 5.2 12.2 0.00 0.13 0.13 89 1007.2
20260509210525 51 171 7.0 12.2 0.00 0.13 0.13 88 1007.2
20260509210042 51 188 5.2 12.2 0.00 0.13 0.13 89 1007.4
20260509205525 51 192 7.0 13.9 0.00 0.13 0.13 88 1007.4
20260509205027 51 189 8.7 13.9 0.00 0.13 0.13 89 1007.4
20260509204538 51 224 4.3 11.3 0.00 0.13 0.13 89 1007.5
20260509204023 51 194 6.1 11.3 0.00 0.13 0.13 89 1007.5
20260509203523 51 200 7.0 11.3 0.00 0.13 0.13 89 1007.6
20260509203043 51 173 7.0 11.3 0.00 0.13 0.13 89 1007.6
20260509202522 51 204 5.2 10.4 0.00 0.13 0.13 89 1007.7
20260509202023 51 221 5.2 10.4 0.00 0.13 0.13 90 1007.8
20260509201546 51 184 5.2 8.7 0.00 0.13 0.13 90 1007.7
20260509201022 50 206 5.2 7.8 0.00 0.13 0.13 90 1007.8
20260509200523 50 205 4.3 11.3 0.00 0.13 0.13 90 1007.8
20260509200048 50 188 6.1 11.3 0.00 0.13 0.13 90 1007.7
20260509195529 50 202 5.2 9.6 0.00 0.13 0.13 90 1007.8
20260509195025 50 201 4.3 9.6 0.00 0.13 0.13 90 1007.8
20260509194540 50 214 4.3 8.7 0.00 0.13 0.13 90 1007.9
20260509194025 50 207 4.3 8.7 0.00 0.13 0.13 90 1008.0
20260509193525 50 232 5.2 8.7 0.00 0.13 0.13 91 1008.1
20260509193038 50 192 4.3 7.8 0.00 0.13 0.13 91 1008.0
20260509192524 50 188 4.3 9.6 0.00 0.13 0.13 90 1008.2
20260509192025 50 191 5.2 9.6 0.00 0.13 0.13 90 1008.2
20260509191546 50 184 4.3 8.7 0.00 0.13 0.13 90 1008.3
20260509191025 50 200 6.1 12.2 0.00 0.13 0.13 90 1008.4
20260509190523 50 186 5.2 12.2 0.00 0.13 0.13 91 1008.5
20260509190054 50 196 6.1 10.4 0.00 0.13 0.13 91 1008.5
20260509185522 50 214 6.1 10.4 0.00 0.13 0.13 91 1008.5
20260509185025 50 174 5.2 8.7 0.00 0.13 0.13 91 1008.5
20260509184558 50 194 4.3 7.8 0.00 0.13 0.13 91 1008.5
20260509184022 50 194 4.3 8.7 0.00 0.13 0.13 91 1008.5
20260509183525 50 173 4.3 10.4 0.00 0.13 0.13 91 1008.4
20260509183039 50 171 6.1 10.4 0.00 0.13 0.13 92 1008.5
20260509182524 50 229 7.0 10.4 0.00 0.13 0.13 92 1008.5
20260509182028 50 184 6.1 10.4 0.00 0.13 0.13 92 1008.5
20260509181548 50 180 6.1 10.4 0.00 0.13 0.13 92 1008.5
20260509181025 49 171 5.2 10.4 0.00 0.13 0.13 92 1008.5
20260509180525 49 198 5.2 8.7 0.00 0.13 0.13 92 1008.5
20260509180045 49 192 4.3 7.8 0.00 0.13 0.13 93 1008.5
20260509175522 49 202 5.2 9.6 0.00 0.13 0.13 93 1008.5
20260509175022 49 182 5.2 10.4 0.00 0.13 0.13 93 1008.5
20260509174548 49 218 5.2 10.4 0.00 0.13 0.13 93 1008.5
20260509174027 49 189 6.1 9.6 0.00 0.13 0.13 93 1008.4
20260509173526 49 194 5.2 9.6 0.00 0.13 0.13 93 1008.4
20260509173046 49 178 5.2 8.7 0.00 0.13 0.13 93 1008.4
20260509172521 49 160 4.3 7.8 0.00 0.13 0.13 93 1008.3
20260509172024 49 176 4.3 8.7 0.00 0.13 0.13 93 1008.4
20260509171538 49 186 5.2 8.7 0.00 0.13 0.13 93 1008.3
20260509171025 49 186 5.2 8.7 0.00 0.13 0.13 93 1008.4
20260509170525 49 157 5.2 8.7 0.00 0.13 0.13 93 1008.4
20260509170053 49 178 6.1 8.7 0.00 0.13 0.13 93 1008.5
20260509165525 49 168 5.2 9.6 0.00 0.13 0.13 93 1008.5
20260509165022 49 152 5.2 9.6 0.00 0.13 0.13 93 1008.6
20260509164543 48 171 6.1 10.4 0.01 0.13 0.13 93 1008.7
20260509164028 48 183 6.1 10.4 0.01 0.13 0.13 93 1008.7
20260509163523 48 160 7.0 11.3 0.01 0.13 0.13 93 1008.7
20260509163058 48 171 6.1 11.3 0.01 0.13 0.13 93 1008.7
20260509162525 48 170 6.1 10.4 0.01 0.13 0.13 93 1008.8
20260509162029 48 161 5.2 9.6 0.01 0.13 0.13 93 1008.9
20260509161542 48 170 5.2 10.4 0.01 0.13 0.13 93 1008.9
20260509161025 48 188 6.1 11.3 0.01 0.13 0.13 93 1009.1
20260509160525 48 193 6.1 11.3 0.01 0.13 0.13 93 1009.1
20260509160041 48 172 7.8 11.3 0.01 0.13 0.13 93 1009.1
20260509155524 48 185 7.0 13.0 0.01 0.14 0.13 94 1009.2
20260509155027 48 188 7.8 13.0 0.01 0.14 0.13 94 1009.2
20260509154543 48 188 5.2 10.4 0.00 0.13 0.12 94 1009.3
20260509154028 48 163 3.5 7.8 0.00 0.13 0.12 94 1009.3
20260509153526 48 162 3.5 9.6 0.01 0.13 0.12 94 1009.3
20260509153043 48 195 5.2 11.3 0.01 0.13 0.12 94 1009.4
20260509152523 48 188 6.1 11.3 0.01 0.13 0.12 94 1009.4
20260509152025 48 186 7.0 11.3 0.02 0.13 0.12 94 1009.5
20260509151542 48 227 5.2 12.2 0.02 0.13 0.12 94 1009.5
20260509151022 48 195 7.0 12.2 0.02 0.13 0.12 94 1009.6
20260509150524 48 189 6.1 12.2 0.03 0.13 0.12 94 1009.6
20260509150044 48 166 5.2 12.2 0.03 0.13 0.12 94 1009.6
20260509145526 47 175 7.8 12.2 0.04 0.16 0.12 94 1009.6
20260509145022 47 197 6.1 11.3 0.04 0.16 0.12 94 1009.6
20260509144540 47 163 6.1 11.3 0.04 0.16 0.12 94 1009.6
20260509144025 47 164 7.0 11.3 0.04 0.16 0.12 94 1009.6
20260509143524 47 167 5.2 8.7 0.04 0.15 0.11 94 1009.6
20260509143047 47 173 5.2 11.3 0.04 0.15 0.11 94 1009.8
20260509142524 47 172 6.1 11.3 0.04 0.15 0.11 94 1009.8
20260509142025 46 150 5.2 7.8 0.04 0.14 0.10 94 1009.8
20260509141542 46 152 5.2 8.7 0.04 0.14 0.10 94 1009.9
20260509141025 46 175 4.3 8.7 0.04 0.14 0.10 94 1009.9
20260509140523 46 166 4.3 7.0 0.04 0.13 0.09 94 1009.9
20260509140051 45 181 4.3 7.8 0.04 0.13 0.09 94 1009.9
20260509135522 45 157 4.3 7.8 0.03 0.12 0.08 93 1009.9
20260509135022 45 165 3.5 6.1 0.04 0.12 0.08 93 1009.9
20260509134543 45 159 3.5 7.0 0.04 0.12 0.08 93 1010.0
20260509134022 45 180 5.2 7.8 0.04 0.12 0.08 93 1010.0
20260509133524 45 176 5.2 7.8 0.04 0.11 0.07 93 1010.1
20260509133044 45 173 4.3 7.8 0.04 0.11 0.07 93 1010.1
20260509132522 45 178 4.3 7.0 0.05 0.11 0.07 93 1010.1
20260509132025 45 194 3.5 7.0 0.04 0.10 0.06 93 1010.1
20260509131541 45 189 3.5 6.1 0.04 0.10 0.06 93 1010.2
20260509131025 45 171 4.3 6.1 0.04 0.10 0.06 93 1010.1
20260509130525 45 190 3.5 6.1 0.04 0.09 0.05 93 1010.1
20260509130042 44 167 3.5 6.1 0.04 0.09 0.05 93 1010.2
20260509125524 44 194 2.6 5.2 0.04 0.09 0.05 92 1010.2
20260509125028 44 187 2.6 5.2 0.03 0.08 0.04 92 1010.2
20260509124542 44 176 1.7 4.3 0.04 0.08 0.04 92 1010.2
20260509124024 43 154 1.7 4.3 0.04 0.08 0.04 91 1010.2
20260509123524 43 158 1.7 4.3 0.03 0.07 0.03 91 1010.1
20260509123053 43 167 1.7 3.5 0.03 0.07 0.03 91 1010.2
20260509122525 43 167 1.7 3.5 0.02 0.06 0.02 91 1010.3
20260509122026 43 167 2.6 3.5 0.02 0.06 0.02 90 1010.4
20260509121541 43 167 1.7 4.3 0.02 0.06 0.02 90 1010.5
20260509121025 43 167 1.7 4.3 0.02 0.06 0.02 90 1010.5
20260509120529 43 166 1.7 4.3 0.01 0.05 0.01 90 1010.5
20260509120040 43 167 1.7 3.5 0.01 0.05 0.01 89 1010.5
20260509115526 43 167 2.6 3.5 0.01 0.05 0.01 89 1010.6
20260509115031 43 167 1.7 3.5 0.01 0.05 0.01 89 1010.7
20260509114545 43 167 1.7 3.5 0.00 0.04 0.00 89 1010.7
20260509114025 42 167 1.7 4.3 0.00 0.04 0.00 89 1010.6
20260509113523 42 167 1.7 4.3 0.00 0.04 0.00 89 1010.6
20260509113104 42 176 1.7 4.3 0.00 0.04 0.00 88 1010.6
20260509112524 42 185 1.7 4.3 0.00 0.04 0.00 88 1010.6
20260509112024 42 180 1.7 3.5 0.00 0.04 0.00 88 1010.6
20260509111548 42 180 1.7 2.6 0.00 0.04 0.00 88 1010.6
20260509111024 42 180 0.9 3.5 0.00 0.04 0.00 88 1010.4
20260509110522 42 180 1.7 4.3 0.00 0.04 0.00 88 1010.3
20260509110041 42 180 2.6 4.3 0.00 0.04 0.00 87 1010.3
20260509105522 42 172 2.6 6.1 0.00 0.04 0.00 87 1010.2
20260509105025 42 175 2.6 6.1 0.00 0.04 0.00 87 1010.2
20260509104538 42 183 3.5 6.1 0.00 0.04 0.00 87 1010.2
20260509104024 42 194 4.3 6.1 0.00 0.04 0.00 87 1010.2
20260509103526 41 194 3.5 6.1 0.00 0.04 0.00 88 1010.1
20260509103055 40 188 1.7 4.3 0.00 0.04 0.00 86 1010.1
20260509102522 40 161 1.7 4.3 0.00 0.04 0.00 85 1010.0
20260509102025 40 161 1.7 4.3 0.00 0.04 0.00 85 1009.9
20260509101546 40 170 1.7 4.3 0.00 0.04 0.00 85 1010.0
20260509101024 40 178 2.6 4.3 0.00 0.04 0.00 85 1010.0
20260509100524 40 169 2.6 6.1 0.00 0.04 0.00 85 1010.0
20260509100105 40 182 2.6 7.0 0.00 0.04 0.00 84 1010.0
20260509095522 39 190 3.5 7.0 0.00 0.04 0.00 84 1010.0
20260509095022 39 184 3.5 7.0 0.00 0.04 0.00 84 1010.0
20260509094547 39 182 3.5 6.1 0.00 0.04 0.00 83 1010.0
20260509094023 39 166 3.5 6.1 0.00 0.04 0.00 82 1010.0
20260509093522 39 169 2.6 5.2 0.00 0.04 0.00 82 1010.0
20260509093039 39 178 2.6 5.2 0.00 0.04 0.00 81 1010.1
20260509092523 39 186 2.6 5.2 0.00 0.04 0.00 81 1010.2
20260509092023 39 202 3.5 5.2 0.00 0.04 0.00 81 1010.3
20260509091554 39 188 2.6 4.3 0.00 0.04 0.00 80 1010.1
20260509091023 38 188 2.6 3.5 0.00 0.04 0.00 80 1010.1
20260509090525 38 188 1.7 3.5 0.00 0.04 0.00 79 1010.1
20260509090050 38 192 1.7 3.5 0.00 0.04 0.00 80 1010.4
20260509085524 38 221 0.9 2.6 0.00 0.05 0.00 80 1010.4
20260509085024 38 221 0.9 2.6 0.00 0.05 0.00 79 1010.4
20260509084545 38 221 0.9 1.7 0.00 0.05 0.00 80 1010.6
20260509084024 38 221 0.0 2.6 0.00 0.05 0.00 79 1010.4
20260509083521 38 221 0.9 2.6 0.00 0.05 0.00 80 1010.5
20260509083047 37 221 0.9 2.6 0.00 0.05 0.00 79 1010.6
20260509082525 37 221 0.0 1.7 0.00 0.05 0.00 80 1010.6
20260509082027 37 0 0.0 1.7 0.00 0.05 0.00 80 1010.6
20260509081538 37 221 0.0 1.7 0.00 0.05 0.00 80 1010.6
20260509081025 38 0 0.0 2.6 0.00 0.05 0.00 80 1010.6
20260509080525 38 221 0.9 2.6 0.00 0.05 0.00 79 1010.6
20260509080049 38 221 0.9 2.6 0.00 0.05 0.00 78 1010.7
20260509075524 38 221 0.9 1.7 0.00 0.05 0.00 78 1010.8
20260509075027 38 221 0.9 1.7 0.00 0.05 0.00 78 1010.7
20260509074544 38 0 0.0 2.6 0.00 0.05 0.00 77 1010.6
20260509074025 38 221 0.9 2.6 0.00 0.05 0.00 77 1010.7
20260509073526 38 221 0.9 2.6 0.00 0.05 0.00 77 1010.8
20260509073048 38 221 0.9 3.5 0.00 0.05 0.00 77 1010.7